Waarnemingen

Advertentie
Mijn weer
Figari, Frankrijk (7780): temperatuur & dauwpunt: 17.02.2018 07:00:00 - 23.02.2018 07:00:00 (CET)Figari, Frankrijk (7780): temperatuur 5cm: 17.02.2018 07:00:00 - 23.02.2018 07:00:00 (CET)Figari, Frankrijk (7780): windsnelheid & windstoten: 17.02.2018 07:00:00 - 23.02.2018 07:00:00 (CET)Figari, Frankrijk (7780): windrichting: 17.02.2018 07:00:00 - 23.02.2018 07:00:00 (CET)Figari, Frankrijk (7780): luchtdruk: 17.02.2018 07:00:00 - 23.02.2018 07:00:00 (CET)Figari, Frankrijk (7780): zicht: 17.02.2018 07:00:00 - 23.02.2018 07:00:00 (CET)Figari, Frankrijk (7780): Zonneschijnduur: 17.02.2018 07:00:00 - 23.02.2018 07:00:00 (CET)Figari, Frankrijk (7780): neerslag: 17.02.2018 07:00:00 - 23.02.2018 07:00:00 (CET)
Datum & Tijd tt [°C] td [°C] tt 5cm [°C] ff [km/u] ff [kn] fx [km/u] fx [kn] dd ppp [hPa] vv [km] sd [min] rr [mm]
23.02.2018 07:00:00 2,7 2,4 0,5 3 2 12 7 O 1000,2 18 0 0,0
23.02.2018 06:00:00 2,4 2,1 -0,3 4 2 9 5 WNW 1000,6 15 0 0,0
23.02.2018 05:00:00 2,4 2,1 -1,1 4 2 8 4 NNO 1000,8 18 0 0,0
23.02.2018 04:00:00 1,2 0,8 -1,2 5 3 8 5 N 1000,6 4,4 0 0,0
23.02.2018 03:00:00 2,3 1,6 -0,8 7 4 9 5 NNO 1000,7 0,6 0 0,0
23.02.2018 02:00:00 4,0 3,3 1,1 4 2 5 3 NO 1001,5 1,3 0 0,0
23.02.2018 01:00:00 5,1 4,5 3,1 0 0 3 2 N 1001,7 1,7 0 0,0
23.02.2018 00:00:00 5,8 5,2 4,5 2 1 4 2 O 1001,9 8 0 0,0
22.02.2018 23:00:00 6,0 5,4 5,1 2 1 8 4 N 1002,1 8 0 0,0
22.02.2018 22:00:00 6,0 5,1 5,1 7 4 9 5 ZW 1002,0 11 0 0,4
22.02.2018 21:00:00 6,1 5,2 5,3 6 3 14 8 NO 1002,0 10 0 2,2
22.02.2018 20:00:00 6,4 5,2 5,3 11 6 19 10 ONO 1001,8 12 0 0,2
22.02.2018 19:00:00 6,6 4,9 5,4 9 5 17 9 NO 1001,4 29 0 0,0
22.02.2018 18:00:00 7,5 4,1 5,8 10 5 22 12 ONO 1001,0 52 0 0,0
22.02.2018 17:00:00 8,7 3,9 8,3 16 9 30 16 ONO 1000,9 60 0 0,0
22.02.2018 16:00:00 9,0 4,2 9,1 18 10 40 22 ONO 1001,0 58 0 0,0
22.02.2018 15:00:00 9,7 4,1 10,6 19 11 42 23 NO 1000,9 58 0 0,0
22.02.2018 14:00:00 10,4 3,4 10,7 17 9 33 18 NO 1000,8 60 0 0,0
22.02.2018 13:00:00 10,4 3,0 11,4 18 10 46 25 ONO 1000,9 59 19 0,0
22.02.2018 12:00:00 11,1 3,1 11,0 17 9 32 17 ONO 1001,3 54 24 0,0
22.02.2018 11:00:00 9,4 3,1 9,1 22 12 35 19 NO 1001,3 53 0 0,0
22.02.2018 10:00:00 8,1 2,5 6,5 16 9 26 14 NO 1001,3 60 0 0,0
22.02.2018 09:00:00 6,6 1,9 3,4 14 7 27 14 ONO 1001,4 60 0 0,0
22.02.2018 08:00:00 4,8 1,5 0,0 13 7 24 13 ONO 1001,2 60 0 0,0
22.02.2018 07:00:00 2,7 0,6 -0,9 10 5 20 11 NO 1001,1 60 0 0,0
22.02.2018 06:00:00 2,1 -0,2 -0,9 8 4 14 7 NNO 1000,9 60 0 0,0
22.02.2018 05:00:00 2,7 0,4 -3,0 10 5 18 10 ONO 1001,2 58 0 0,0
22.02.2018 04:00:00 0,1 -1,0 -3,1 8 4 13 7 NO 1001,6 43 0 0,0
22.02.2018 03:00:00 0,1 -1,3 -2,8 10 5 13 7 NNO 1002,1 27 0 0,0
22.02.2018 02:00:00 1,6 -0,2 -1,9 9 5 13 7 NNO 1002,5 49 0 0,0
22.02.2018 01:00:00 1,6 0,1 -1,9 7 4 13 7 NO 1002,8 47 0 0,0
22.02.2018 00:00:00 1,6 -0,3 -1,8 4 2 10 6 N 1003,0 55 0 0,0
21.02.2018 23:00:00 2,5 0,6 -1,3 6 4 13 7 N 1003,1 51 0 0,0
21.02.2018 22:00:00 4,0 0,7 -0,2 5 3 15 8 NNO 1003,3 55 0 0,0
21.02.2018 21:00:00 5,4 1,1 1,8 9 5 21 11 ONO 1003,5 59 0 0,0
21.02.2018 20:00:00 6,7 1,0 3,2 14 7 25 13 NO 1003,3 60 0 0,0
21.02.2018 19:00:00 6,0 1,3 2,8 11 6 18 10 NO 1003,1 60 0 0,0
21.02.2018 18:00:00 8,0 1,2 5,9 15 8 36 19 NO 1002,7 60 10 0,0
21.02.2018 17:00:00 9,8 1,4 8,0 16 9 40 21 ONO 1002,3 60 20 0,0
21.02.2018 16:00:00 9,3 1,9 9,2 19 11 39 21 NO 1002,4 60 0 0,0
21.02.2018 15:00:00 9,4 2,5 9,1 18 10 40 21 ONO 1002,6 58 0 0,0
21.02.2018 14:00:00 9,4 2,7 10,9 21 11 56 31 ONO 1003,1 52 18 0,0
21.02.2018 13:00:00 10,8 2,6 10,7 26 14 45 24 NO 1003,4 37 50 0,0
21.02.2018 12:00:00 9,5 1,6 10,3 23 12 43 23 ONO 1003,7 44 25 0,0
21.02.2018 11:00:00 9,7 1,6 9,9 22 12 39 21 ONO 1003,6 54 28 0,0
21.02.2018 10:00:00 9,2 3,0 8,7 12 7 29 16 ONO 1003,3 60 56 0,0
21.02.2018 09:00:00 7,7 3,4 3,7 15 8 26 14 ONO 1002,9 46 21 0,0
21.02.2018 08:00:00 4,5 2,7 2,9 9 5 13 7 NO 1003,1 41 1 0,0
21.02.2018 07:00:00 3,6 2,3 0,7 4 2 10 6 NO 1003,1 27 0 0,0
21.02.2018 06:00:00 3,3 1,5 1,0 2 1 11 6 ONO 1003,0 47 0 0,0
21.02.2018 05:00:00 4,8 1,6 2,2 4 2 14 8 NNO 1003,0 55 0 0,0
21.02.2018 04:00:00 5,0 1,7 1,4 12 7 23 12 ONO 1003,1 52 0 0,0
21.02.2018 03:00:00 4,3 1,5 -0,6 11 6 21 11 ONO 1003,7 52 0 0,0
21.02.2018 02:00:00 3,9 1,1 0,1 8 5 22 12 NO 1004,3 50 0 0,0
21.02.2018 01:00:00 5,8 1,9 2,6 13 7 23 13 ONO 1004,8 53 0 0,0
21.02.2018 00:00:00 5,1 2,3 2,8 8 4 13 7 NNO 1004,9 55 0 0,0
20.02.2018 23:00:00 5,5 3,2 3,3 5 3 23 12 NNW 1005,1 59 0 0,0
20.02.2018 22:00:00 5,5 3,0 3,2 13 7 21 11 NO 1004,8 49 0 0,0
20.02.2018 21:00:00 5,3 3,1 3,1 6 4 24 13 NO 1005,2 44 0 0,0
20.02.2018 20:00:00 6,1 3,8 4,0 13 7 22 12 ONO 1004,7 32 0 0,4
20.02.2018 19:00:00 5,8 4,6 3,8 9 5 18 10 ONO 1005,1 32 0 0,0
20.02.2018 18:00:00 6,7 4,7 5,1 8 4 31 17 O 1004,8 52 0 0,0
20.02.2018 17:00:00 7,4 5,4 6,4 13 7 26 14 ONO 1004,8 60 0 0,0
20.02.2018 16:00:00 6,9 5,4 6,3 12 7 50 27 NO 1005,1 20 13 0,6
20.02.2018 15:00:00 10,6 4,9 12,9 31 17 50 27 NO 1004,6 60 44 0,0
20.02.2018 14:00:00 10,2 4,8 10,8 16 9 26 14 NO 1004,8 59 34 0,0
20.02.2018 13:00:00 9,0 4,4 8,2 6 3 20 11 Z 1005,8 60 4 0,0
20.02.2018 12:00:00 8,6 4,0 8,1 16 8 26 14 ZZW 1006,7 60 26 0,0
20.02.2018 11:00:00 9,9 6,4 7,0 11 6 19 10 O 1007,0 49 21 0,0
20.02.2018 10:00:00 7,7 6,2 7,1 11 6 16 9 ONO 1007,6 3,3 0 2,4
20.02.2018 09:00:00 8,1 6,1 5,9 9 5 17 9 ONO 1007,8 60 0 0,0
20.02.2018 08:00:00 6,4 4,9 4,6 6 3 13 7 NNO 1008,0 55 0 0,0
20.02.2018 07:00:00 5,8 4,4 3,4 5 3 15 8 OZO 1008,1 57 0 0,0
20.02.2018 06:00:00 5,2 3,7 2,9 5 3 22 12 NNO 1008,6 56 0 0,0
20.02.2018 05:00:00 7,1 4,1 4,4 16 9 22 12 ZW 1008,7 58 0 0,0
20.02.2018 04:00:00 6,7 5,3 1,9 14 8 21 12 ZW 1009,2 60 0 0,0
20.02.2018 03:00:00 4,3 4,0 -0,4 6 3 11 6 ZO 1009,9 42 0 0,0
20.02.2018 02:00:00 3,4 2,8 0,6 5 3 9 5 NO 1010,8 19 0 0,0
20.02.2018 01:00:00 4,1 3,5 1,7 4 2 9 5 ONO 1011,3 18 0 0,0
20.02.2018 00:00:00 4,8 4,2 1,5 5 3 8 4 NO 1011,6 8 0 0,0
19.02.2018 23:00:00 6,0 5,4 4,4 4 2 6 3 NNO 1012,1 18 0 0,0
19.02.2018 22:00:00 6,1 5,5 4,5 0 0 6 3 N 1012,6 14 0 0,0
19.02.2018 21:00:00 6,6 5,9 4,4 3 2 7 4 NNO 1012,8 36 0 0,0
19.02.2018 20:00:00 6,5 5,4 3,6 3 1 6 4 NW 1012,9 59 0 0,0
19.02.2018 19:00:00 7,3 5,9 5,4 4 2 20 11 O 1012,9 60 0 0,0
19.02.2018 18:00:00 8,1 6,4 6,9 10 5 27 14 NO 1012,8 60 29 0,6
19.02.2018 17:00:00 8,6 6,7 7,9 16 9 32 17 ONO 1012,8 17 9 0,0
19.02.2018 16:00:00 9,8 5,4 11,0 19 10 36 19 ONO 1013,1 60 28 0,0
19.02.2018 15:00:00 10,6 6,2 10,9 16 9 31 17 ONO 1013,2 54 11 0,0
19.02.2018 14:00:00 9,8 6,7 10,7 16 9 33 18 ONO 1013,5 60 1 0,0
19.02.2018 13:00:00 11,1 6,4 11,9 16 9 30 16 ONO 1013,8 60 3 0,0
19.02.2018 12:00:00 10,3 6,4 9,8 20 11 31 17 ONO 1014,1 60 8 0,0
19.02.2018 11:00:00 10,0 5,6 9,9 13 7 26 14 ONO 1014,3 54 3 0,0
19.02.2018 10:00:00 10,3 6,4 9,0 13 7 25 13 ONO 1014,2 60 17 0,0
19.02.2018 09:00:00 8,8 6,1 6,7 13 7 22 12 ONO 1014,4 60 20 0,0
19.02.2018 08:00:00 7,7 6,3 6,4 14 8 23 12 ONO 1014,3 60 0 0,0
19.02.2018 07:00:00 7,7 6,6 6,6 11 6 16 9 NO 1014,0 60 0 0,0
19.02.2018 06:00:00 8,0 6,8 7,0 11 6 21 12 ONO 1013,6 59 0 0,0
19.02.2018 05:00:00 8,6 8,0 7,5 10 6 17 9 ONO 1013,6 20 0 0,2
19.02.2018 04:00:00 8,3 7,9 6,5 2 1 7 4 NO 1013,6 11 0 0,0
19.02.2018 03:00:00 8,2 7,8 6,0 2 1 5 3 O 1014,0 9 0 0,0
19.02.2018 02:00:00 8,1 7,2 5,7 0 0 4 2 N 1014,5 0,5 0 0,0
19.02.2018 01:00:00 9,1 8,3 7,4 0 0 4 2 N 1014,7 7 0 0,0
19.02.2018 00:00:00 9,4 8,6 8,1 2 1 4 2 NO 1015,0 9 0 0,0
18.02.2018 23:00:00 9,6 8,8 8,1 4 2 7 4 N 1015,2 19 0 0,0
18.02.2018 22:00:00 9,7 8,6 8,5 3 2 5 3 NO 1015,2 16 0 0,6
18.02.2018 21:00:00 10,0 8,8 8,8 3 1 8 5 NNO 1015,1 7 0 0,4
18.02.2018 20:00:00 10,6 8,0 9,1 3 2 11 6 ONO 1015,1 15 0 0,0
18.02.2018 19:00:00 11,2 7,9 9,5 10 5 19 10 ZW 1014,8 20 0 0,0
18.02.2018 18:00:00 11,5 7,2 10,6 13 7 26 14 WZW 1014,5 60 0 0,0
18.02.2018 17:00:00 11,7 7,0 11,1 18 10 37 20 ZW 1014,2 59 0 0,0
18.02.2018 16:00:00 12,2 7,1 12,2 25 14 40 22 ZW 1014,0 57 13 0,0
18.02.2018 15:00:00 13,1 7,3 15,0 27 15 41 22 WZW 1014,0 56 46 0,0
18.02.2018 14:00:00 14,4 6,7 14,7 25 13 41 22 WZW 1014,4 60 44 0,0
18.02.2018 13:00:00 13,3 6,9 14,8 29 16 46 25 ZW 1014,9 45 29 0,0
18.02.2018 12:00:00 14,7 7,5 19,8 33 18 46 25 WZW 1015,1 50 60 0,0
18.02.2018 11:00:00 13,9 7,0 17,1 29 15 43 23 ZW 1015,0 35 56 0,0
18.02.2018 10:00:00 13,9 7,6 13,9 21 11 40 22 W 1015,3 20 38 0,0
18.02.2018 09:00:00 12,0 7,3 10,2 16 9 30 16 WZW 1015,6 20 38 0,0
18.02.2018 08:00:00 10,7 7,4 7,9 17 9 32 17 WZW 1015,8 39 22 0,0
18.02.2018 07:00:00 9,8 6,9 7,8 22 12 40 22 WZW 1015,5 57 0 0,0
18.02.2018 06:00:00 11,3 6,4 9,1 25 13 48 26 W 1015,4 60 0 0,0
18.02.2018 05:00:00 11,6 7,3 9,3 25 13 51 27 W 1015,4 60 0 0,0
18.02.2018 04:00:00 11,8 8,1 9,5 26 14 43 23 W 1015,5 60 0 0,0
18.02.2018 03:00:00 12,4 11,1 11,4 25 14 40 22 WZW 1016,1 19 0 0,0
18.02.2018 02:00:00 12,6 11,2 11,5 26 14 45 25 WZW 1016,9 10 0 0,0
18.02.2018 01:00:00 12,8 10,7 11,8 20 11 37 20 WZW 1017,5 23 0 0,0
18.02.2018 00:00:00 12,9 11,3 11,6 21 12 33 18 WZW 1018,0 45 0 0,0
17.02.2018 23:00:00 12,7 10,2 10,7 18 10 33 18 WZW 1018,4 58 0 0,0
17.02.2018 22:00:00 12,1 9,8 10,6 23 12 34 18 WZW 1018,5 57 0 0,0
17.02.2018 21:00:00 12,7 9,9 11,1 18 10 27 15 ZW 1018,4 60 0 0,0
17.02.2018 20:00:00 12,7 10,1 11,4 15 8 32 18 ZZW 1018,6 60 0 0,0
17.02.2018 19:00:00 12,5 10,2 11,1 20 11 29 16 ZW 1018,9 59 0 0,0
17.02.2018 18:00:00 13,2 10,4 11,9 20 11 42 23 ZW 1018,9 60 1 0,0
17.02.2018 17:00:00 14,0 10,8 13,9 29 16 42 23 ZW 1018,7 56 0 0,0
17.02.2018 16:00:00 15,1 10,5 16,0 19 11 31 17 ZZW 1019,1 52 34 0,0
17.02.2018 15:00:00 15,6 10,8 17,4 19 10 28 15 ZW 1019,2 53 13 0,0
17.02.2018 14:00:00 16,9 11,0 18,9 9 5 15 8 ZZW 1019,5 60 31 0,0
17.02.2018 13:00:00 16,5 9,9 19,0 2 1 16 9 ZZW 1020,5 60 1 0,0
17.02.2018 12:00:00 16,2 9,6 19,1 8 5 27 14 NO 1021,3 60 19 0,0
17.02.2018 11:00:00 15,7 9,8 15,8 16 9 31 17 NO 1021,7 60 55 0,0
17.02.2018 10:00:00 13,8 8,4 13,6 16 9 29 16 NO 1021,8 53 47 0,0
17.02.2018 09:00:00 12,3 9,3 9,2 11 6 18 10 NO 1022,2 60 2 0,0
17.02.2018 08:00:00 9,9 8,3 6,9 9 5 19 10 NO 1022,6 60 0 0,0
17.02.2018 07:00:00 9,6 7,9 7,8 12 6 19 11 NNO 1022,1 60 0 0,0

tt = temperatuur
td = dauwpunt
tt 5cm = temperatuur 5cm
ff = windsnelheid
fx = windstoten
dd = windrichting
ppp = luchtdruk
vv = zicht
sd = Zonneschijnduur
rr = neerslag

Weerstations in de omgeving